ROMMA est une association bénévole à but non lucratif. Votre soutien est indispensable : ADHERER à ROMMA ou FAIRE un DON

Crêts du Salève - (74, Haute-Savoie)

Salève (1270 m)   Longitude: 6° 10' 28'' E   Latitude: 46° 7' 42'' N Station romma n°73
 

Détail journalier du     <<     >>

Température Precipitation Humidité Vent Dir Rafale Dir. rafale Ensol.
Heure (°C) (mm) (%) (km/h) (km/h) (min)
01:00 8.109810NE16NE0
02:00 8.709514ENE18NE0
03:00 8.609413ENE18E0
04:00 8.809212ESE18ESE0
05:00 12.506816SE26SSE0
06:00 13.005918SSE31S0
07:00 13.205721S32S0
08:00 13.205620S31S0
09:00 12.505914S24S30
10:00 11.606715SSO31SSO60
11:00 13.305924SSO37SSO60
12:00 13.305921SSO34SO60
13:00 13.206719SSO34SSO60
14:00 13.406720SO32SSO60
15:00 13.606820SO34SSO60
16:00 13.806620SO29SO60
17:00 14.006317OSO27SO60
18:00 13.506317SO26SSO20
19:00 12.806916OSO21OSO0
20:00 12.707015SO24SO0
21:00 13.306212SO24SO0
22:00 11.408211SO23SSO0
23:00 11.108324SO37SO0
minuit 10.808532SO47SSO0

Graphique du 26-10-2019

 

Serveur OMMA